User: anonymous   Login
Location: Bailleul
(50.3375°N, 2.8513°E)
Time: 17:26:25
(UTC+00:00)
Language:

Cosmos 1844 Rocket - Orbit

View from above orbital plane
View from above orbital plane
View from above satellite
View from above satellite

Ground track
Ground track

The orbit data is extracted from the following two-line orbital elements,

1 17974U 87041B   21264.63578050 -.00000148  00000-0 -49484-4 0  9995
2 17974  71.0067 228.3378 0013884 184.7719 347.6095 14.17274769777109
Epoch (UTC): 21 September 2021 15:15:31
Eccentricity: 0.0013884
inclination: 71.0067°
perigee height: 824 km
apogee height: 844 km
right ascension of ascending node: 228.3378°
argument of perigee: 184.7719°
revolutions per day: 14.17274769
mean anomaly at epoch: 347.6095°
orbit number at epoch: 77710

The dashed part of the orbit path shows where the satellite is in the earth's shadow,  

DLR